When you browse on this site, cookies collect data to enhance your experience and personalize the content and advertising you see.
Visit our Privacy Policy to learn more. By continuing to use the site, you agree to this use of cookies and data.
  • In Österreich
  • Länderverzeichnis
  • Für 7 Tage
  • Wassertemperatur
  • Satellitenkarten
  • Wetterkarte
  • News
  • Widgets
  • user-avatar
    Anmelden

    Stündliche Wetter Rojtokmuzsaj

    Heute, 19 Februar, Dienstag

    Zeit Temperatur Niederschläge Wind Luftdruck Luftfeuchtigkeit
    00:00 +4°C° 0 mm 3 m/S 750 mmHg 73%
    01:00 +4°C° 0 mm 3 m/S 749 mmHg 76%
    02:00 +4°C° 0 mm 3 m/S 749 mmHg 77%
    03:00 +4°C° 0 mm 2 m/S 749 mmHg 79%
    04:00 +4°C° 0 mm 2 m/S 749 mmHg 81%
    05:00 +4°C° 0 mm 2 m/S 749 mmHg 82%
    06:00 +4°C° 0 mm 1 m/S 749 mmHg 83%
    07:00 +3°C° 0 mm 1 m/S 749 mmHg 82%
    08:00 +4°C° 0 mm 0 m/S 749 mmHg 77%
    09:00 +5°C° 0 mm 0 m/S 749 mmHg 71%
    10:00 +6°C° 0 mm 0 m/S 749 mmHg 66%
    11:00 +8°C° 0 mm 0 m/S 749 mmHg 60%
    12:00 +10°C° 0 mm 1 m/S 749 mmHg 54%
    13:00 +11°C° 0 mm 1 m/S 749 mmHg 48%
    14:00 +12°C° 0 mm 1 m/S 749 mmHg 47%
    15:00 +11°C° 0 mm 0 m/S 749 mmHg 46%
    16:00 +12°C° 0 mm 0 m/S 748 mmHg 46%
    17:00 +11°C° 0 mm 1 m/S 749 mmHg 50%
    18:00 +10°C° 0 mm 1 m/S 749 mmHg 55%
    19:00 +9°C° 0 mm 1 m/S 749 mmHg 59%
    20:00 +7°C° 0 mm 2 m/S 749 mmHg 61%
    21:00 +7°C° 0 mm 2 m/S 749 mmHg 63%
    22:00 +7°C° 0 mm 2 m/S 750 mmHg 65%
    23:00 +7°C° 0 mm 1 m/S 750 mmHg 66%

    Morgen, 20 Februar, Mittwoch

    Zeit Temperatur Niederschläge Wind Luftdruck Luftfeuchtigkeit
    00:00 +7°C° 0 mm 1 m/S 750 mmHg 67%
    01:00 +7°C° 0 mm 1 m/S 750 mmHg 68%
    02:00 +6°C° 0 mm 2 m/S 750 mmHg 72%
    03:00 +6°C° 0 mm 2 m/S 750 mmHg 76%
    04:00 +6°C° 0 mm 2 m/S 750 mmHg 80%
    05:00 +6°C° 0 mm 2 m/S 751 mmHg 81%
    06:00 +5°C° 0 mm 3 m/S 751 mmHg 82%
    07:00 +4°C° 0 mm 3 m/S 751 mmHg 83%
    08:00 +7°C° 0 mm 3 m/S 751 mmHg 75%
    09:00 +8°C° 0 mm 3 m/S 752 mmHg 66%
    10:00 +8°C° 0 mm 4 m/S 752 mmHg 58%
    11:00 +10°C° 0 mm 4 m/S 752 mmHg 54%
    12:00 +11°C° 0 mm 4 m/S 752 mmHg 50%
    13:00 +12°C° 0 mm 3 m/S 752 mmHg 46%
    14:00 +12°C° 0 mm 3 m/S 752 mmHg 48%
    15:00 +12°C° 0 mm 3 m/S 752 mmHg 50%
    16:00 +13°C° 0 mm 2 m/S 752 mmHg 52%
    17:00 +12°C° 0 mm 2 m/S 752 mmHg 57%
    18:00 +9°C° 0 mm 2 m/S 753 mmHg 62%
    19:00 +9°C° 0 mm 1 m/S 753 mmHg 67%
    20:00 +9°C° 0 mm 1 m/S 753 mmHg 71%
    21:00 +7°C° 0 mm 2 m/S 753 mmHg 74%
    22:00 +7°C° 0 mm 2 m/S 754 mmHg 78%
    23:00 +6°C° 0 mm 2 m/S 754 mmHg 80%

    übermorgen, 21 Februar, Donnerstag

    Zeit Temperatur Niederschläge Wind Luftdruck Luftfeuchtigkeit
    00:00 +6°C° 0 mm 2 m/S 754 mmHg 82%
    01:00 +5°C° 0 mm 2 m/S 754 mmHg 84%
    02:00 +6°C° 0 mm 1 m/S 754 mmHg 85%
    03:00 +6°C° 0 mm 1 m/S 754 mmHg 85%
    04:00 +6°C° 0 mm 1 m/S 754 mmHg 86%
    05:00 +5°C° 0 mm 1 m/S 754 mmHg 86%
    06:00 +5°C° 0 mm 1 m/S 755 mmHg 86%
    07:00 +5°C° 0 mm 1 m/S 755 mmHg 87%
    08:00 +7°C° 0 mm 1 m/S 755 mmHg 80%
    09:00 +8°C° 0 mm 1 m/S 755 mmHg 74%
    10:00 +10°C° 0 mm 1 m/S 755 mmHg 67%
    11:00 +10°C° 0 mm 2 m/S 755 mmHg 61%
    12:00 +12°C° 0 mm 2 m/S 755 mmHg 55%
    13:00 +14°C° 0 mm 2 m/S 754 mmHg 50%
    14:00 +14°C° 0 mm 2 m/S 754 mmHg 51%
    15:00 +14°C° 0 mm 2 m/S 754 mmHg 52%
    16:00 +14°C° 0 mm 1 m/S 753 mmHg 53%
    17:00 +13°C° 0 mm 1 m/S 753 mmHg 58%
    18:00 +12°C° 0 mm 1 m/S 753 mmHg 62%
    19:00 +11°C° 0 mm 1 m/S 754 mmHg 67%
    20:00 +9°C° 0.1 mm 2 m/S 754 mmHg 69%
    21:00 +9°C° 0.1 mm 2 m/S 754 mmHg 72%
    22:00 +9°C° 0.1 mm 2 m/S 754 mmHg 75%
    23:00 +9°C° 0 mm 2 m/S 754 mmHg 76%

    22 Februar, Freitag

    Zeit Temperatur Niederschläge Wind Luftdruck Luftfeuchtigkeit
    00:00 +8°C° 0 mm 3 m/S 753 mmHg 76%
    01:00 +8°C° 0 mm 3 m/S 753 mmHg 77%
    02:00 +7°C° 0.3 mm 4 m/S 753 mmHg 77%
    03:00 +7°C° 0.3 mm 5 m/S 753 mmHg 76%
    04:00 +8°C° 0.3 mm 6 m/S 753 mmHg 76%
    05:00 +8°C° 0.5 mm 6 m/S 753 mmHg 77%
    06:00 +6°C° 0.5 mm 7 m/S 753 mmHg 77%
    07:00 +6°C° 0.5 mm 7 m/S 753 mmHg 78%
    08:00 +7°C° 0 mm 8 m/S 753 mmHg 74%
    09:00 +7°C° 0 mm 9 m/S 753 mmHg 71%
    10:00 +8°C° 0 mm 10 m/S 754 mmHg 67%
    11:00 +8°C° 0 mm 10 m/S 754 mmHg 68%
    12:00 +8°C° 0 mm 9 m/S 754 mmHg 68%
    13:00 +7°C° 0 mm 9 m/S 754 mmHg 68%
    14:00 +7°C° 0 mm 9 m/S 755 mmHg 64%
    15:00 +7°C° 0 mm 9 m/S 755 mmHg 60%
    16:00 +7°C° 0 mm 10 m/S 755 mmHg 56%
    17:00 +5°C° 0 mm 9 m/S 756 mmHg 56%
    18:00 +3°C° 0 mm 9 m/S 757 mmHg 56%
    19:00 +1°C° 0 mm 9 m/S 758 mmHg 57%
    20:00 0°C° 0 mm 8 m/S 759 mmHg 56%
    21:00 -1°C° 0 mm 8 m/S 760 mmHg 56%
    22:00 -2°C° 0 mm 7 m/S 761 mmHg 55%
    23:00 -2°C° 0 mm 6 m/S 761 mmHg 57%

    23 Februar, Samstag

    Zeit Temperatur Niederschläge Wind Luftdruck Luftfeuchtigkeit
    00:00 -2°C° 0 mm 5 m/S 761 mmHg 59%
    01:00 -3°C° 0 mm 4 m/S 762 mmHg 61%
    02:00 -3°C° 0 mm 4 m/S 762 mmHg 61%
    03:00 -3°C° 0 mm 4 m/S 762 mmHg 61%
    04:00 -3°C° 0 mm 4 m/S 762 mmHg 60%
    05:00 -2°C° 0 mm 3 m/S 762 mmHg 60%
    06:00 -2°C° 0 mm 3 m/S 763 mmHg 60%
    07:00 -2°C° 0 mm 3 m/S 763 mmHg 60%
    08:00 -2°C° 0 mm 3 m/S 763 mmHg 54%
    09:00 -1°C° 0 mm 3 m/S 763 mmHg 49%
    10:00 0°C° 0 mm 3 m/S 763 mmHg 43%
    11:00 +1°C° 0 mm 3 m/S 763 mmHg 39%
    12:00 +2°C° 0 mm 3 m/S 762 mmHg 35%
    13:00 +3°C° 0 mm 3 m/S 761 mmHg 32%
    14:00 +3°C° 0 mm 3 m/S 761 mmHg 31%
    15:00 +3°C° 0 mm 3 m/S 760 mmHg 31%
    16:00 +3°C° 0 mm 4 m/S 760 mmHg 31%
    17:00 +2°C° 0 mm 3 m/S 760 mmHg 35%
    18:00 +1°C° 0 mm 3 m/S 760 mmHg 38%
    19:00 0°C° 0 mm 3 m/S 760 mmHg 42%
    20:00 0°C° 0 mm 3 m/S 760 mmHg 42%
    21:00 +1°C° 0 mm 3 m/S 760 mmHg 42%
    22:00 +1°C° 0 mm 3 m/S 760 mmHg 42%
    23:00 0°C° 0 mm 3 m/S 760 mmHg 43%

    24 Februar, Sonntag

    Zeit Temperatur Niederschläge Wind Luftdruck Luftfeuchtigkeit
    00:00 0°C° 0 mm 3 m/S 760 mmHg 44%
    01:00 +1°C° 0 mm 2 m/S 760 mmHg 45%
    02:00 -1°C° 0 mm 3 m/S 760 mmHg 45%
    03:00 -1°C° 0 mm 3 m/S 760 mmHg 46%
    04:00 -2°C° 0 mm 3 m/S 760 mmHg 47%
    05:00 -2°C° 0 mm 3 m/S 760 mmHg 47%
    06:00 -2°C° 0 mm 3 m/S 760 mmHg 47%
    07:00 -2°C° 0 mm 3 m/S 760 mmHg 46%
    08:00 -1°C° 0 mm 3 m/S 761 mmHg 43%
    09:00 0°C° 0 mm 4 m/S 761 mmHg 40%
    10:00 +1°C° 0 mm 4 m/S 761 mmHg 36%
    11:00 +2°C° 0 mm 5 m/S 761 mmHg 37%
    12:00 +3°C° 0 mm 5 m/S 761 mmHg 38%
    13:00 +3°C° 0 mm 5 m/S 761 mmHg 38%
    14:00 +5°C° 0 mm 5 m/S 760 mmHg 40%
    15:00 +5°C° 0 mm 5 m/S 760 mmHg 41%
    16:00 +5°C° 0 mm 5 m/S 760 mmHg 42%
    17:00 +4°C° 0 mm 4 m/S 760 mmHg 48%
    18:00 +1°C° 0 mm 4 m/S 761 mmHg 53%
    19:00 +1°C° 0 mm 3 m/S 761 mmHg 58%
    20:00 +1°C° 0 mm 3 m/S 761 mmHg 59%
    21:00 0°C° 0 mm 4 m/S 761 mmHg 61%
    22:00 -1°C° 0 mm 4 m/S 762 mmHg 62%
    23:00 -1°C° 0 mm 4 m/S 762 mmHg 63%
    Mehr zeigen